| time (UTC) | temp C | wind direction | speed KPH | gust KPH | rain 1hr cm | rain 24hr cm | rain mn cm | humidity % | barometer mb |
| 20260507052207 | 8 | 43 | 0.0 | 6.4 | 0.00 | 0.00 | 0.00 | 88 | 1015.7 |
| 20260507042157 | 8 | 43 | 1.6 | 6.4 | 0.00 | 0.00 | 0.00 | 88 | 1015.3 |
| 20260507032157 | 8 | 43 | 1.6 | 8.0 | 0.00 | 0.00 | 0.00 | 88 | 1015.3 |
| 20260507022155 | 8 | 41 | 1.6 | 6.4 | 0.00 | 0.00 | 0.00 | 88 | 1015.1 |
| 20260507012155 | 9 | 40 | 0.0 | 6.4 | 0.00 | 0.00 | 0.00 | 86 | 1014.9 |
| 20260507002155 | 9 | 46 | 1.6 | 6.4 | 0.00 | 0.00 | 0.00 | 87 | 1014.9 |
| 20260506232155 | 10 | 49 | 1.6 | 8.0 | 0.00 | 0.00 | 0.00 | 86 | 1014.8 |
| 20260506222153 | 10 | 38 | 3.2 | 11.3 | 0.00 | 0.00 | 0.00 | 84 | 1014.7 |
| 20260506212154 | 10 | 46 | 3.2 | 14.5 | 0.00 | 0.00 | 0.00 | 80 | 1014.5 |
| 20260506202154 | 11 | 348 | 6.4 | 14.5 | 0.00 | 0.00 | 0.00 | 73 | 1014.2 |
| 20260506192152 | 11 | 42 | 1.6 | 6.4 | 0.00 | 0.00 | 0.00 | 75 | 1013.6 |
| 20260506182152 | 11 | 47 | 0.0 | 11.3 | 0.00 | 0.00 | 0.00 | 72 | 1013.1 |
| 20260506172143 | 11 | 38 | 4.8 | 12.9 | 0.00 | 0.00 | 0.00 | 69 | 1012.8 |
| 20260506162143 | 12 | 41 | 4.8 | 12.9 | 0.00 | 0.00 | 0.00 | 67 | 1012.8 |
| 20260506152144 | 12 | 44 | 4.8 | 16.1 | 0.00 | 0.00 | 0.00 | 66 | 1012.7 |
| 20260506142144 | 12 | 0 | 6.4 | 17.7 | 0.00 | 0.00 | 0.00 | 68 | 1012.7 |
| 20260506132143 | 12 | 27 | 6.4 | 20.9 | 0.00 | 0.00 | 0.00 | 68 | 1012.9 |
| 20260506122143 | 12 | 21 | 8.0 | 20.9 | 0.00 | 0.00 | 0.00 | 68 | 1012.8 |
| 20260506112143 | 12 | 5 | 8.0 | 19.3 | 0.00 | 0.00 | 0.00 | 67 | 1012.8 |
| 20260506102143 | 12 | 9 | 9.7 | 25.7 | 0.00 | 0.00 | 0.00 | 67 | 1012.8 |
| 20260506092144 | 10 | 10 | 8.0 | 25.7 | 0.00 | 0.00 | 0.00 | 73 | 1012.9 |
| 20260506082144 | 10 | 355 | 9.7 | 20.9 | 0.00 | 0.00 | 0.00 | 76 | 1012.5 |
| 20260506072143 | 8 | 348 | 8.0 | 19.3 | 0.00 | 0.00 | 0.00 | 83 | 1012.7 |
| 20260506062144 | 7 | 49 | 8.0 | 16.1 | 0.00 | 0.00 | 0.00 | 85 | 1012.5 |